• In Hungary
  • List of Countries
  • For 7 days
  • Water Temperature
  • Satellite Maps
  • Weather Map
  • News
  • Weather Widgets
  • user-avatar
    Login

    Hourly Weather Boyary (Tyurli)

    Today, 14 December, Thursday

    Time Temperature Precipitation Wind Pressure Humidity
    00:00 -5°C° 0 mm 2 mps 739 mmHg 92%
    01:00 -5°C° 0 mm 2 mps 738 mmHg 92%
    02:00 -6°C° 0 mm 3 mps 738 mmHg 93%
    03:00 -6°C° 0 mm 3 mps 737 mmHg 93%
    04:00 -6°C° 0 mm 3 mps 737 mmHg 93%
    05:00 -7°C° 0 mm 4 mps 736 mmHg 93%
    06:00 -7°C° 0 mm 4 mps 736 mmHg 93%
    07:00 -5°C° 0 mm 4 mps 735 mmHg 93%
    08:00 -6°C° 0 mm 5 mps 734 mmHg 93%
    09:00 -6°C° 0 mm 5 mps 734 mmHg 91%
    10:00 -5°C° 0 mm 5 mps 733 mmHg 90%
    11:00 -5°C° 0 mm 6 mps 733 mmHg 88%
    12:00 -4°C° 0 mm 6 mps 732 mmHg 87%
    13:00 -3°C° 0 mm 6 mps 731 mmHg 86%
    14:00 -3°C° 0 mm 6 mps 731 mmHg 85%
    15:00 -3°C° 0.1 mm 6 mps 730 mmHg 85%
    16:00 -2°C° 0.1 mm 6 mps 730 mmHg 86%
    17:00 -2°C° 0.1 mm 6 mps 729 mmHg 86%
    18:00 -2°C° 0.2 mm 6 mps 729 mmHg 87%
    19:00 -2°C° 0.2 mm 6 mps 728 mmHg 87%
    20:00 -2°C° 0.2 mm 6 mps 728 mmHg 87%
    21:00 -2°C° 0.2 mm 7 mps 728 mmHg 87%
    22:00 -1°C° 0.2 mm 7 mps 728 mmHg 86%
    23:00 -1°C° 0.2 mm 7 mps 727 mmHg 86%

    Tomorrow, 15 December, Friday

    Time Temperature Precipitation Wind Pressure Humidity
    00:00 -1°C° 0.1 mm 7 mps 728 mmHg 85%
    01:00 -2°C° 0.1 mm 7 mps 728 mmHg 84%
    02:00 -2°C° 0.1 mm 7 mps 728 mmHg 84%
    03:00 -2°C° 0 mm 7 mps 729 mmHg 85%
    04:00 -3°C° 0 mm 6 mps 729 mmHg 86%
    05:00 -2°C° 0 mm 5 mps 730 mmHg 86%
    06:00 -2°C° 0 mm 5 mps 730 mmHg 87%
    07:00 -3°C° 0 mm 4 mps 731 mmHg 88%
    08:00 -4°C° 0 mm 4 mps 731 mmHg 89%
    09:00 -4°C° 0 mm 5 mps 732 mmHg 87%
    10:00 -2°C° 0 mm 5 mps 732 mmHg 86%
    11:00 -3°C° 0 mm 6 mps 732 mmHg 84%
    12:00 -1°C° 0 mm 5 mps 732 mmHg 85%
    13:00 -1°C° 0 mm 5 mps 732 mmHg 86%
    14:00 -1°C° 0 mm 5 mps 731 mmHg 87%
    15:00 -1°C° 0 mm 4 mps 731 mmHg 88%
    16:00 -2°C° 0 mm 4 mps 731 mmHg 90%
    17:00 -2°C° 0 mm 4 mps 731 mmHg 92%
    18:00 -2°C° 0.3 mm 4 mps 731 mmHg 92%
    19:00 -1°C° 0.3 mm 5 mps 730 mmHg 91%
    20:00 -1°C° 0.3 mm 5 mps 730 mmHg 91%
    21:00 -1°C° 0.3 mm 5 mps 729 mmHg 92%
    22:00 -1°C° 0.3 mm 5 mps 728 mmHg 93%
    23:00 -1°C° 0.3 mm 5 mps 728 mmHg 94%

    Day after tomorrow, 16 December, Saturday

    Time Temperature Precipitation Wind Pressure Humidity
    00:00 0°C° 0.7 mm 5 mps 727 mmHg 94%
    01:00 -1°C° 0.7 mm 6 mps 727 mmHg 94%
    02:00 -1°C° 0.7 mm 6 mps 727 mmHg 93%
    03:00 -1°C° 0 mm 6 mps 727 mmHg 91%
    04:00 -2°C° 0 mm 6 mps 727 mmHg 88%
    05:00 -2°C° 0 mm 7 mps 727 mmHg 86%
    06:00 -2°C° 0 mm 6 mps 728 mmHg 86%
    07:00 -2°C° 0 mm 6 mps 728 mmHg 87%
    08:00 -2°C° 0 mm 6 mps 729 mmHg 88%
    09:00 -2°C° 0 mm 6 mps 730 mmHg 88%
    10:00 -1°C° 0 mm 5 mps 730 mmHg 89%
    11:00 -1°C° 0 mm 4 mps 731 mmHg 90%
    12:00 -1°C° 0 mm 4 mps 731 mmHg 91%
    13:00 0°C° 0 mm 3 mps 731 mmHg 92%
    14:00 0°C° 0 mm 3 mps 732 mmHg 93%
    15:00 -1°C° 0 mm 3 mps 732 mmHg 93%
    16:00 -1°C° 0 mm 3 mps 733 mmHg 93%
    17:00 -1°C° 0 mm 3 mps 733 mmHg 92%
    18:00 -2°C° 0 mm 3 mps 734 mmHg 93%
    19:00 -2°C° 0 mm 2 mps 734 mmHg 94%
    20:00 -2°C° 0 mm 2 mps 734 mmHg 94%
    21:00 -3°C° 0 mm 2 mps 735 mmHg 95%
    22:00 -3°C° 0 mm 2 mps 735 mmHg 95%
    23:00 -3°C° 0 mm 2 mps 735 mmHg 95%

    17 December, Sunday

    Time Temperature Precipitation Wind Pressure Humidity
    00:00 -3°C° 0 mm 2 mps 736 mmHg 95%
    01:00 -3°C° 0 mm 2 mps 736 mmHg 95%
    02:00 -3°C° 0 mm 2 mps 736 mmHg 95%
    03:00 -3°C° 0 mm 2 mps 737 mmHg 95%
    04:00 -3°C° 0 mm 2 mps 737 mmHg 95%
    05:00 -4°C° 0 mm 2 mps 737 mmHg 95%
    06:00 -4°C° 0 mm 2 mps 738 mmHg 95%
    07:00 -4°C° 0 mm 2 mps 738 mmHg 95%
    08:00 -4°C° 0 mm 2 mps 739 mmHg 95%
    09:00 -4°C° 0 mm 2 mps 739 mmHg 93%
    10:00 -3°C° 0 mm 2 mps 739 mmHg 91%
    11:00 -3°C° 0 mm 2 mps 740 mmHg 90%
    12:00 -2°C° 0 mm 2 mps 740 mmHg 88%
    13:00 0°C° 0 mm 1 mps 740 mmHg 87%
    14:00 0°C° 0 mm 1 mps 740 mmHg 85%
    15:00 0°C° 0 mm 1 mps 740 mmHg 86%
    16:00 0°C° 0 mm 1 mps 741 mmHg 86%
    17:00 -1°C° 0 mm 1 mps 741 mmHg 87%
    18:00 -1°C° 0 mm 1 mps 741 mmHg 87%
    19:00 -1°C° 0 mm 1 mps 741 mmHg 86%
    20:00 -1°C° 0 mm 1 mps 741 mmHg 86%
    21:00 -1°C° 0 mm 1 mps 741 mmHg 86%
    22:00 -1°C° 0 mm 1 mps 741 mmHg 86%
    23:00 -1°C° 0 mm 1 mps 741 mmHg 86%

    18 December, Monday

    Time Temperature Precipitation Wind Pressure Humidity
    00:00 -1°C° 0 mm 1 mps 741 mmHg 87%
    01:00 -3°C° 0 mm 2 mps 741 mmHg 88%
    02:00 -3°C° 0 mm 2 mps 741 mmHg 89%
    03:00 -3°C° 0 mm 2 mps 740 mmHg 89%
    04:00 -3°C° 0 mm 2 mps 740 mmHg 90%
    05:00 -4°C° 0 mm 3 mps 740 mmHg 90%
    06:00 -4°C° 0 mm 3 mps 740 mmHg 90%
    07:00 -5°C° 0 mm 3 mps 740 mmHg 90%
    08:00 -5°C° 0 mm 3 mps 740 mmHg 91%
    09:00 -5°C° 0 mm 3 mps 740 mmHg 90%
    10:00 -4°C° 0 mm 3 mps 740 mmHg 89%
    11:00 -4°C° 0 mm 4 mps 740 mmHg 88%
    12:00 -4°C° 0.1 mm 4 mps 740 mmHg 87%
    13:00 -4°C° 0.1 mm 4 mps 740 mmHg 87%
    14:00 -4°C° 0.1 mm 4 mps 740 mmHg 86%
    15:00 -4°C° 0.1 mm 4 mps 740 mmHg 86%
    16:00 -4°C° 0.1 mm 4 mps 740 mmHg 86%
    17:00 -5°C° 0.1 mm 4 mps 741 mmHg 86%
    18:00 -5°C° 0 mm 4 mps 741 mmHg 86%
    19:00 -5°C° 0 mm 4 mps 741 mmHg 87%
    20:00 -5°C° 0 mm 4 mps 742 mmHg 87%
    21:00 -4°C° 0 mm 4 mps 742 mmHg 88%
    22:00 -4°C° 0 mm 4 mps 742 mmHg 88%
    23:00 -4°C° 0 mm 4 mps 742 mmHg 88%

    19 December, Tuesday

    Time Temperature Precipitation Wind Pressure Humidity
    00:00 -4°C° 0.1 mm 4 mps 743 mmHg 88%
    01:00 -4°C° 0.1 mm 4 mps 743 mmHg 88%
    02:00 -5°C° 0.1 mm 5 mps 743 mmHg 87%
    03:00 -5°C° 0 mm 5 mps 743 mmHg 87%
    04:00 -5°C° 0 mm 5 mps 743 mmHg 87%
    05:00 -5°C° 0 mm 5 mps 744 mmHg 86%
    06:00 -6°C° 0 mm 5 mps 744 mmHg 86%
    07:00 -6°C° 0 mm 5 mps 744 mmHg 86%
    08:00 -6°C° 0 mm 5 mps 745 mmHg 85%
    09:00 -6°C° 0 mm 5 mps 745 mmHg 84%
    10:00 -6°C° 0 mm 5 mps 746 mmHg 83%
    11:00 -6°C° 0 mm 5 mps 746 mmHg 81%
    12:00 -5°C° 0 mm 5 mps 746 mmHg 81%
    13:00 -5°C° 0 mm 5 mps 746 mmHg 81%
    14:00 -5°C° 0 mm 5 mps 746 mmHg 81%
    15:00 -5°C° 0 mm 4 mps 746 mmHg 83%
    16:00 -5°C° 0 mm 4 mps 747 mmHg 85%
    17:00 -5°C° 0 mm 4 mps 747 mmHg 87%
    18:00 -7°C° 0 mm 4 mps 747 mmHg 89%
    19:00 -7°C° 0 mm 4 mps 747 mmHg 91%
    20:00 -7°C° 0 mm 4 mps 747 mmHg 93%
    21:00 -6°C° 0 mm 3 mps 747 mmHg 93%
    22:00 -6°C° 0 mm 3 mps 747 mmHg 93%
    23:00 -6°C° 0 mm 3 mps 748 mmHg 93%
    Show more